This is the latest recevied weather packets stored in our database for station/object W1LBM. If no packets are shown the sender has not sent any weather packets the latest 1 day(s).
| Time | Temp. | Humidity | Pressure | Rain* | Wind** | Luminosity | Snow |
|---|---|---|---|---|---|---|---|
| 1836274571 | 15° C | 61% | 1023.2 hPa | 0 mm | 0.45 m/s, 305° | 0 W/m² | - |
| 1836274425 | 15° C | 66% | 1023.3 hPa | 0 mm | 0 m/s | 0 W/m² | - |
| 1836274269 | 15.56° C | 58% | 1023 hPa | 0 mm | 0 m/s | 0 W/m² | - |
| 1836274123 | 15° C | 66% | 1023.3 hPa | 0 mm | 0 m/s | 0 W/m² | - |
| 1836273968 | 15.56° C | 59% | 1023.1 hPa | 0 mm | 0 m/s | 0 W/m² | - |
| 1778052352 | 16.11° C | 80% | 1014.2 hPa | 0 mm | 0.89 m/s, 133° | 0 W/m² | - |
| 1778052050 | 16.11° C | 80% | 1014.1 hPa | 0 mm | 0.45 m/s, 129° | 0 W/m² | - |
| 1778051748 | 16.11° C | 80% | 1014.1 hPa | 0 mm | 0.45 m/s, 148° | 0 W/m² | - |
| 1778051445 | 16.11° C | 80% | 1014.2 hPa | 0 mm | 0.89 m/s, 180° | 0 W/m² | - |
| 1778051142 | 15.56° C | 81% | 1014.1 hPa | 0 mm | 0.89 m/s, 158° | 0 W/m² | - |
| 1778050839 | 16.11° C | 80% | 1014 hPa | 0 mm | 0.45 m/s, 162° | 0 W/m² | - |
| 1778050537 | 16.11° C | 80% | 1014 hPa | 0 mm | 2.68 m/s, 192° | 0 W/m² | - |
| 1778050233 | 15.56° C | 80% | 1013.9 hPa | 0 mm | 0.45 m/s, 41° | 0 W/m² | - |
| 1778049930 | 15.56° C | 80% | 1014.1 hPa | 0 mm | 1.34 m/s, 186° | 0 W/m² | - |
| 1778049626 | 16.11° C | 80% | 1014.2 hPa | 0 mm | 0.45 m/s, 164° | 0 W/m² | - |
| 1778049324 | 16.11° C | 80% | 1014.1 hPa | 0 mm | 1.34 m/s, 176° | 0 W/m² | - |
| 1778049021 | 16.11° C | 80% | 1014 hPa | 0 mm | 0.45 m/s, 183° | 0 W/m² | - |
| 1778048720 | 16.11° C | 79% | 1014 hPa | 0 mm | 1.79 m/s, 193° | 0 W/m² | - |
| 1778048416 | 16.11° C | 79% | 1014 hPa | 0 mm | 0.89 m/s, 198° | 0 W/m² | - |
| 1778048112 | 16.11° C | 79% | 1013.9 hPa | 0 mm | 0.89 m/s, 202° | 0 W/m² | - |
| 1778047810 | 16.11° C | 78% | 1014 hPa | 0 mm | 0.89 m/s, 193° | 0 W/m² | - |
| 1778047508 | 16.11° C | 78% | 1014 hPa | 0 mm | 1.34 m/s, 178° | 0 W/m² | - |
| 1778047205 | 16.11° C | 78% | 1014.2 hPa | 0 mm | 1.79 m/s, 175° | 0 W/m² | - |
| 1778046902 | 16.11° C | 77% | 1014.1 hPa | 0 mm | 0.45 m/s, 189° | 0 W/m² | - |
| 1778046598 | 16.11° C | 77% | 1014.2 hPa | 0 mm | 2.68 m/s, 201° | 0 W/m² | - |
* Rain latest hour (hover to see other rain measurements)
** Current wind speed in m/s (hover to see current wind gust speed)